Regional Weather Roundup
Issued by NWS

Home | Current Version | Previous Version | Graphics & Text | Print | Product List | Glossary Off
Versions: 1 2 3 4 5 6 7 8 9 10 11 12 13 14 15 16 17 18 19 20 21 22 23 24 25 26 27 28 29 30 31 32 33 34 35 36 37 38 39 40 41 42 43 44 45 46 47 48 49 50

000
ASUS43 KTOP 231259
RWRKS

WEATHER ROUNDUP FOR KANSAS
NATIONAL WEATHER SERVICE GOODLAND KS
800 AM CDT WED APR 23 2014

NOTE:  "FAIR" INDICATES FEW OR NO CLOUDS BELOW 12,000 FEET WITH NO
SIGNIFICANT WEATHER AND/OR OBSTRUCTIONS TO VISIBILITY.

KSZ001>006-013>018-027>032-041>047-231400-
NORTHWEST KANSAS

CITY           SKY/WX    TMP DP  RH WIND       PRES   REMARKS
GOODLAND       CLOUDY    63  42  46 S23G33    29.61S
HAYS           PTSUNNY  N/A N/A N/A S22       29.73F
HILL CITY      PTSUNNY   56  43  61 S16G24    29.67F
RUSSELL        MOSUNNY   59  39  47 SE26G33   29.73F
$$

KSZ061>065-074>080-084>089-231400-
SOUTHWEST KANSAS

CITY           SKY/WX    TMP DP  RH WIND       PRES   REMARKS
DODGE CITY     MOSUNNY   58  47  66 S18G26    29.76S
ELKHART          N/A     60  39  45 S14         N/A
GARDEN CITY    MOSUNNY   59  46  62 S13       29.74S
GREAT BEND     MOSUNNY   59  39  47 S18G26    29.77R
LIBERAL        CLOUDY    61  43  51 E17       29.78R
$$

KSZ066>073-081>083-090>101-231400-
SOUTHEAST KANSAS

CITY           SKY/WX    TMP DP  RH WIND       PRES   REMARKS
CHANUTE        PTSUNNY   55  38  52 E10       29.96S
COFFEYVILLE    SUNNY     52  42  69 E5        29.95S
HUTCHINSON     MOSUNNY   58  36  43 S17       29.85S
NEWTON         PTSUNNY   55  34  44 SE17      29.90R
PARSONS        MOSUNNY   55  38  52 VRB5      29.96S
WICHITA INTL   PTSUNNY   59  37  44 SE17      29.86F
WICHITA JABRA  PTSUNNY   56  39  53 SE13      29.88R
$$

KSZ007>012-019>026-033>040-048>060-102>105-231400-
NORTHEAST KANSAS

CITY           SKY/WX    TMP DP  RH WIND       PRES   REMARKS
CONCORDIA      CLOUDY    54  41  61 SE22      29.83F
EMPORIA        CLOUDY    55  37  50 SE15      29.91F
LAWRENCE       CLOUDY    57  37  47 SE14      29.99F
MANHATTAN      CLOUDY    57  39  51 SE14      29.89S
OLATHE IND     CLOUDY    55  35  47 SE15      30.01R
OLATHE EXE     CLOUDY    53  36  52 SE12      30.00R
SALINA         PTSUNNY   59  37  44 SE15      29.85R
TOPEKA BILLARD CLOUDY    57  37  47 SE14      29.97F
TOPEKA FORBES  CLOUDY    56  36  47 SE17G24   29.95S
$$



USA.gov is the U.S. government's official web portal to all federal, state and local government web resources and services.